Location: Arnolds Mill
(42.3415°N, 73.5951°W)
Time: 12:55:26
(UTC+00:00)

STARLINK-34392 - Pass Details

Date: 23 June 2025
Orbit: 301 x 302 km, 53.2° (Epoch: 26 June)

Event Time Altitude Azimuth Distance (km) Brightness Sun altitude
Exits shadow 06:00:20 18° 343° (NNW) 827 5.2 -22.6°
Drops below altitude 10° 06:02:05 10° 25° (NNE) 1,178 6.4 -22.5°
Sets 06:04:23 0° 45° (NE) 2,001 7.5 -22.4°
